PPTHZ SMJP-SOCA

Flight info

Callsign PPTHZ
Flight time 1h 16m
Altitude 7500
Route DCT
Aircraft C182/L-S/SB1

Departure

Time 2026-04-18 21:16
Airport Johan Adolf Pengel International Airport (SMJP)

Arrival

Time 2026-04-18 22:32
Airport Cayenne – Félix Eboué Airport (SOCA)
Time Latitude Longitude Altitude Speed Heading
2026-04-18 21:11 5.45532 -55.20039 55 ft 0 kts
2026-04-18 21:13 5.45520 -55.20044 55 ft 8 kts 175°
2026-04-18 21:14 5.45444 -55.20051 55 ft 11 kts 244°
2026-04-18 21:14 5.45445 -55.20140 55 ft 14 kts 271°
2026-04-18 21:14 5.45444 -55.20250 55 ft 15 kts 266°
2026-04-18 21:14 5.45439 -55.20341 53 ft 11 kts 233°
2026-04-18 21:15 5.45355 -55.20355 52 ft 14 kts 167°
2026-04-18 21:15 5.45293 -55.20338 52 ft 9 kts 152°
2026-04-18 21:15 5.45277 -55.20278 51 ft 11 kts 86°
2026-04-18 21:15 5.45279 -55.20077 55 ft 56 kts 90°
2026-04-18 21:16 5.45256 -55.19570 196 ft 84 kts 92°
2026-04-18 21:16 5.45161 -55.18979 524 ft 84 kts 88°
2026-04-18 21:16 5.45141 -55.18397 836 ft 86 kts 84°
2026-04-18 21:16 5.45146 -55.17756 1001 ft 104 kts 84°
2026-04-18 21:17 5.45153 -55.17050 1367 ft 95 kts 88°
2026-04-18 21:17 5.45090 -55.16383 1648 ft 100 kts 96°
2026-04-18 21:17 5.44882 -55.15737 2022 ft 94 kts 106°
2026-04-18 21:17 5.44624 -55.15113 2305 ft 98 kts 106°
2026-04-18 21:18 5.44407 -55.14487 2642 ft 95 kts 98°
2026-04-18 21:18 5.44260 -55.13827 2894 ft 99 kts 100°
2026-04-18 21:18 5.44074 -55.13167 3206 ft 100 kts 104°
2026-04-18 21:18 5.43863 -55.12487 3481 ft 103 kts 103°
2026-04-18 21:19 5.43663 -55.11795 3777 ft 103 kts 102°
2026-04-18 21:19 5.43468 -55.11100 4087 ft 103 kts 101°
2026-04-18 21:19 5.43308 -55.10402 4396 ft 104 kts 99°
2026-04-18 21:19 5.43202 -55.09683 4707 ft 104 kts 94°
2026-04-18 21:20 5.43124 -55.08965 5028 ft 104 kts 96°
2026-04-18 21:20 5.43017 -55.08242 5311 ft 105 kts 96°
2026-04-18 21:20 5.42924 -55.07512 5579 ft 106 kts 97°
2026-04-18 21:20 5.42785 -55.06782 5841 ft 107 kts 102°
2026-04-18 21:21 5.42633 -55.06042 6104 ft 108 kts 99°
2026-04-18 21:21 5.42451 -55.05311 6314 ft 111 kts 106°
2026-04-18 21:21 5.42192 -55.04575 6532 ft 111 kts 110°
2026-04-18 21:21 5.41896 -55.03864 6737 ft 112 kts 112°
2026-04-18 21:22 5.41562 -55.03149 6926 ft 113 kts 114°
2026-04-18 21:22 5.41277 -55.02420 7119 ft 113 kts 105°
2026-04-18 21:22 5.41072 -55.01649 7280 ft 115 kts 101°
2026-04-18 21:22 5.40876 -55.00874 7466 ft 115 kts 105°
2026-04-18 21:23 5.40672 -55.00091 7582 ft 121 kts 99°
2026-04-18 21:23 5.40503 -54.99207 7513 ft 136 kts 99°
2026-04-18 21:23 5.40322 -54.98244 7512 ft 143 kts 100°
2026-04-18 21:23 5.40116 -54.97258 7510 ft 145 kts 101°
2026-04-18 21:24 5.39900 -54.96266 7507 ft 146 kts 101°
2026-04-18 21:24 5.39682 -54.95272 7514 ft 146 kts 101°
2026-04-18 21:24 5.39463 -54.94277 7510 ft 146 kts 101°
2026-04-18 21:24 5.39243 -54.93282 7512 ft 146 kts 101°
2026-04-18 21:25 5.39024 -54.92289 7510 ft 146 kts 102°
2026-04-18 21:25 5.38804 -54.91294 7510 ft 146 kts 101°
2026-04-18 21:25 5.38585 -54.90297 7511 ft 146 kts 101°
2026-04-18 21:25 5.38365 -54.89300 7509 ft 146 kts 101°
2026-04-18 21:26 5.38145 -54.88305 7512 ft 146 kts 101°
2026-04-18 21:26 5.37925 -54.87308 7512 ft 146 kts 101°
2026-04-18 21:26 5.37780 -54.86649 7510 ft 146 kts 101°
2026-04-18 21:26 5.37560 -54.85656 7510 ft 146 kts 101°
2026-04-18 21:27 5.37341 -54.84660 7510 ft 146 kts 101°
2026-04-18 21:27 5.37121 -54.83666 7510 ft 146 kts 101°
2026-04-18 21:27 5.36902 -54.82671 7510 ft 146 kts 101°
2026-04-18 21:27 5.36682 -54.81674 7513 ft 146 kts 101°
2026-04-18 21:28 5.36462 -54.80680 7511 ft 146 kts 102°
2026-04-18 21:28 5.36242 -54.79684 7510 ft 146 kts 102°
2026-04-18 21:28 5.36023 -54.78690 7512 ft 146 kts 102°
2026-04-18 21:28 5.35806 -54.77710 7510 ft 146 kts 102°
2026-04-18 21:29 5.35587 -54.76715 7511 ft 146 kts 102°
2026-04-18 21:29 5.35367 -54.75721 7513 ft 146 kts 102°
2026-04-18 21:29 5.35147 -54.74726 7510 ft 146 kts 102°
2026-04-18 21:29 5.34927 -54.73728 7513 ft 146 kts 102°
2026-04-18 21:30 5.34706 -54.72731 7513 ft 146 kts 102°
2026-04-18 21:30 5.34488 -54.71743 7513 ft 147 kts 102°
2026-04-18 21:30 5.34267 -54.70743 7513 ft 146 kts 102°
2026-04-18 21:30 5.34047 -54.69746 7513 ft 146 kts 102°
2026-04-18 21:31 5.33827 -54.68749 7515 ft 146 kts 102°
2026-04-18 21:31 5.33607 -54.67755 7512 ft 146 kts 102°
2026-04-18 21:31 5.33387 -54.66760 7513 ft 146 kts 102°
2026-04-18 21:31 5.33167 -54.65764 7512 ft 146 kts 102°
2026-04-18 21:32 5.32950 -54.64783 7513 ft 146 kts 102°
2026-04-18 21:32 5.32730 -54.63790 7513 ft 146 kts 102°
2026-04-18 21:32 5.32510 -54.62796 7513 ft 146 kts 102°
2026-04-18 21:32 5.32291 -54.61802 7512 ft 146 kts 102°
2026-04-18 21:33 5.32071 -54.60807 7513 ft 146 kts 102°
2026-04-18 21:33 5.31850 -54.59809 7514 ft 146 kts 102°
2026-04-18 21:33 5.31630 -54.58813 7513 ft 146 kts 102°
2026-04-18 21:33 5.31409 -54.57816 7520 ft 146 kts 102°
2026-04-18 21:34 5.31190 -54.56824 7517 ft 146 kts 102°
2026-04-18 21:34 5.30970 -54.55831 7518 ft 146 kts 102°
2026-04-18 21:34 5.30750 -54.54836 7519 ft 146 kts 102°
2026-04-18 21:34 5.30533 -54.53854 7518 ft 146 kts 102°
2026-04-18 21:35 5.30312 -54.52856 7520 ft 146 kts 102°
2026-04-18 21:35 5.30091 -54.51860 7518 ft 146 kts 102°
2026-04-18 21:35 5.29870 -54.50862 7519 ft 146 kts 102°
2026-04-18 21:35 5.29649 -54.49861 7519 ft 147 kts 102°
2026-04-18 21:36 5.29427 -54.48861 7520 ft 147 kts 102°
2026-04-18 21:36 5.29208 -54.47871 7519 ft 147 kts 102°
2026-04-18 21:36 5.28987 -54.46868 7518 ft 147 kts 102°
2026-04-18 21:36 5.28765 -54.45866 7522 ft 147 kts 102°
2026-04-18 21:37 5.28543 -54.44863 7524 ft 147 kts 102°
2026-04-18 21:37 5.28321 -54.43861 7524 ft 147 kts 102°
2026-04-18 21:37 5.28098 -54.42857 7522 ft 147 kts 102°
2026-04-18 21:37 5.27880 -54.41870 7521 ft 147 kts 102°
2026-04-18 21:38 5.27657 -54.40867 7522 ft 147 kts 102°
2026-04-18 21:38 5.27436 -54.39865 7521 ft 147 kts 102°
2026-04-18 21:38 5.27213 -54.38862 7521 ft 147 kts 102°
2026-04-18 21:38 5.26991 -54.37859 7522 ft 147 kts 102°
2026-04-18 21:39 5.26769 -54.36856 7523 ft 147 kts 102°
2026-04-18 21:39 5.26546 -54.35851 7525 ft 147 kts 102°
2026-04-18 21:39 5.26323 -54.34844 7524 ft 148 kts 101°
2026-04-18 21:39 5.26103 -54.33849 7528 ft 148 kts 101°
2026-04-18 21:40 5.25880 -54.32843 7530 ft 148 kts 101°
2026-04-18 21:40 5.25656 -54.31834 7528 ft 148 kts 101°
2026-04-18 21:40 5.25433 -54.30827 7528 ft 148 kts 101°
2026-04-18 21:40 5.25210 -54.29821 7529 ft 147 kts 101°
2026-04-18 21:41 5.24987 -54.28814 7530 ft 148 kts 102°
2026-04-18 21:41 5.24764 -54.27809 7529 ft 148 kts 101°
2026-04-18 21:41 5.24543 -54.26815 7528 ft 147 kts 101°
2026-04-18 21:41 5.24320 -54.25809 7529 ft 147 kts 102°
2026-04-18 21:42 5.24097 -54.24804 7529 ft 148 kts 101°
2026-04-18 21:42 5.23874 -54.23798 7528 ft 148 kts 101°
2026-04-18 21:42 5.23651 -54.22790 7528 ft 148 kts 101°
2026-04-18 21:42 5.23428 -54.21784 7528 ft 148 kts 101°
2026-04-18 21:43 5.23207 -54.20789 7530 ft 148 kts 102°
2026-04-18 21:43 5.22983 -54.19782 7531 ft 148 kts 101°
2026-04-18 21:43 5.22760 -54.18775 7533 ft 148 kts 101°
2026-04-18 21:43 5.22537 -54.17768 7531 ft 147 kts 101°
2026-04-18 21:44 5.22313 -54.16763 7532 ft 147 kts 102°
2026-04-18 21:44 5.22090 -54.15758 7535 ft 147 kts 101°
2026-04-18 21:44 5.21867 -54.14752 7534 ft 148 kts 101°
2026-04-18 21:44 5.21647 -54.13758 7534 ft 147 kts 101°
2026-04-18 21:45 5.21424 -54.12755 7535 ft 147 kts 101°
2026-04-18 21:45 5.21201 -54.11752 7535 ft 147 kts 102°
2026-04-18 21:45 5.20978 -54.10747 7536 ft 147 kts 101°
2026-04-18 21:45 5.20755 -54.09742 7540 ft 148 kts 101°
2026-04-18 21:46 5.20531 -54.08733 7536 ft 148 kts 102°
2026-04-18 21:46 5.20306 -54.07723 7539 ft 148 kts 101°
2026-04-18 21:46 5.20086 -54.06731 7540 ft 147 kts 101°
2026-04-18 21:46 5.19863 -54.05724 7539 ft 148 kts 101°
2026-04-18 21:47 5.19639 -54.04716 7538 ft 147 kts 101°
2026-04-18 21:47 5.19416 -54.03713 7537 ft 147 kts 101°
2026-04-18 21:47 5.19196 -54.02726 7537 ft 147 kts 101°
2026-04-18 21:47 5.18974 -54.01726 7538 ft 147 kts 101°
2026-04-18 21:48 5.18752 -54.00727 7537 ft 147 kts 101°
2026-04-18 21:48 5.18530 -53.99726 7537 ft 147 kts 101°
2026-04-18 21:48 5.18308 -53.98727 7537 ft 147 kts 101°
2026-04-18 21:48 5.18085 -53.97724 7539 ft 147 kts 102°
2026-04-18 21:49 5.17862 -53.96720 7538 ft 147 kts 101°
2026-04-18 21:49 5.17642 -53.95730 7540 ft 147 kts 101°
2026-04-18 21:49 5.17419 -53.94726 7536 ft 147 kts 101°
2026-04-18 21:49 5.17196 -53.93723 7537 ft 147 kts 101°
2026-04-18 21:50 5.16973 -53.92722 7537 ft 147 kts 101°
2026-04-18 21:50 5.16751 -53.91723 7537 ft 147 kts 101°
2026-04-18 21:50 5.16528 -53.90721 7537 ft 147 kts 101°
2026-04-18 21:50 5.16306 -53.89720 7540 ft 147 kts 101°
2026-04-18 21:51 5.16083 -53.88719 7536 ft 147 kts 101°
2026-04-18 21:51 5.15861 -53.87721 7538 ft 146 kts 101°
2026-04-18 21:51 5.15640 -53.86728 7537 ft 146 kts 101°
2026-04-18 21:51 5.15421 -53.85742 7537 ft 146 kts 101°
2026-04-18 21:52 5.15199 -53.84745 7538 ft 146 kts 101°
2026-04-18 21:52 5.14978 -53.83749 7534 ft 146 kts 101°
2026-04-18 21:52 5.14756 -53.82754 7539 ft 146 kts 101°
2026-04-18 21:52 5.14535 -53.81760 7538 ft 146 kts 101°
2026-04-18 21:53 5.14313 -53.80766 7539 ft 146 kts 101°
2026-04-18 21:53 5.14092 -53.79772 7538 ft 146 kts 101°
2026-04-18 21:53 5.13871 -53.78778 7537 ft 146 kts 101°
2026-04-18 21:53 5.13652 -53.77796 7537 ft 146 kts 101°
2026-04-18 21:54 5.13431 -53.76802 7538 ft 145 kts 101°
2026-04-18 21:54 5.13211 -53.75813 7537 ft 145 kts 101°
2026-04-18 21:54 5.12992 -53.74828 7533 ft 145 kts 101°
2026-04-18 21:54 5.12772 -53.73838 7534 ft 145 kts 101°
2026-04-18 21:55 5.12551 -53.72849 7532 ft 145 kts 101°
2026-04-18 21:55 5.12332 -53.71865 7534 ft 145 kts 101°
2026-04-18 21:55 5.12114 -53.70888 7536 ft 145 kts 101°
2026-04-18 21:55 5.11894 -53.69898 7534 ft 146 kts 101°
2026-04-18 21:56 5.11673 -53.68906 7532 ft 146 kts 101°
2026-04-18 21:56 5.11452 -53.67913 7537 ft 146 kts 101°
2026-04-18 21:56 5.11231 -53.66922 7541 ft 145 kts 101°
2026-04-18 21:56 5.11010 -53.65932 7539 ft 146 kts 101°
2026-04-18 21:57 5.10790 -53.64941 7538 ft 146 kts 101°
2026-04-18 21:57 5.10569 -53.63952 7536 ft 145 kts 101°
2026-04-18 21:57 5.10349 -53.62964 7537 ft 145 kts 101°
2026-04-18 21:57 5.10130 -53.61980 7536 ft 144 kts 101°
2026-04-18 21:58 5.09913 -53.61007 7536 ft 144 kts 101°
2026-04-18 21:58 5.09694 -53.60025 7536 ft 144 kts 101°
2026-04-18 21:58 5.09475 -53.59042 7535 ft 144 kts 101°
2026-04-18 21:58 5.09256 -53.58058 7536 ft 144 kts 101°
2026-04-18 21:59 5.09036 -53.57073 7535 ft 144 kts 101°
2026-04-18 21:59 5.08817 -53.56090 7535 ft 145 kts 101°
2026-04-18 21:59 5.08599 -53.55114 7536 ft 145 kts 101°
2026-04-18 21:59 5.08379 -53.54125 7535 ft 145 kts 101°
2026-04-18 22:00 5.08158 -53.53137 7533 ft 145 kts 101°
2026-04-18 22:00 5.07938 -53.52152 7534 ft 144 kts 101°
2026-04-18 22:00 5.07719 -53.51166 7533 ft 145 kts 101°
2026-04-18 22:00 5.07499 -53.50181 7535 ft 144 kts 101°
2026-04-18 22:01 5.07280 -53.49197 7534 ft 144 kts 100°
2026-04-18 22:01 5.07063 -53.48228 7534 ft 144 kts 101°
2026-04-18 22:01 5.06845 -53.47246 7534 ft 144 kts 101°
2026-04-18 22:01 5.06625 -53.46264 7534 ft 144 kts 101°
2026-04-18 22:02 5.06406 -53.45280 7535 ft 144 kts 101°
2026-04-18 22:02 5.06186 -53.44295 7534 ft 145 kts 101°
2026-04-18 22:02 5.05966 -53.43310 7534 ft 145 kts 101°
2026-04-18 22:02 5.05746 -53.42325 7532 ft 144 kts 101°
2026-04-18 22:03 5.05527 -53.41344 7532 ft 144 kts 101°
2026-04-18 22:03 5.05310 -53.40373 7533 ft 144 kts 101°
2026-04-18 22:03 5.05091 -53.39390 7535 ft 144 kts 101°
2026-04-18 22:03 5.04872 -53.38408 7530 ft 144 kts 101°
2026-04-18 22:04 5.04652 -53.37425 7529 ft 144 kts 101°
2026-04-18 22:04 5.04433 -53.36443 7530 ft 144 kts 101°
2026-04-18 22:04 5.04214 -53.35465 7530 ft 144 kts 101°
2026-04-18 22:04 5.03996 -53.34486 7537 ft 144 kts 100°
2026-04-18 22:05 5.03777 -53.33504 7535 ft 144 kts 101°
2026-04-18 22:05 5.03561 -53.32537 7535 ft 143 kts 101°
2026-04-18 22:05 5.03342 -53.31559 7533 ft 144 kts 101°
2026-04-18 22:05 5.03122 -53.30574 7535 ft 145 kts 101°
2026-04-18 22:06 5.02902 -53.29589 7536 ft 145 kts 100°
2026-04-18 22:06 5.02681 -53.28599 7536 ft 145 kts 100°
2026-04-18 22:06 5.02459 -53.27606 7538 ft 145 kts 101°
2026-04-18 22:06 5.02238 -53.26619 7542 ft 145 kts 100°
2026-04-18 22:07 5.02021 -53.25642 7535 ft 145 kts 100°
2026-04-18 22:07 5.01799 -53.24656 7538 ft 145 kts 101°
2026-04-18 22:07 5.01578 -53.23667 7534 ft 145 kts 101°
2026-04-18 22:07 5.01358 -53.22681 7529 ft 144 kts 101°
2026-04-18 22:08 5.01140 -53.21703 7528 ft 143 kts 101°
2026-04-18 22:08 5.00922 -53.20729 7529 ft 143 kts 100°
2026-04-18 22:08 5.00703 -53.19750 7529 ft 144 kts 101°
2026-04-18 22:08 5.00484 -53.18772 7533 ft 144 kts 101°
2026-04-18 22:09 5.00265 -53.17788 7530 ft 145 kts 101°
2026-04-18 22:09 5.00047 -53.16817 7530 ft 145 kts 100°
2026-04-18 22:09 4.99827 -53.15834 7532 ft 144 kts 101°
2026-04-18 22:09 4.99607 -53.14850 7533 ft 144 kts 100°
2026-04-18 22:10 4.99387 -53.13864 7533 ft 144 kts 100°
2026-04-18 22:10 4.99167 -53.12885 7531 ft 144 kts 101°
2026-04-18 22:10 4.98948 -53.11901 7532 ft 144 kts 101°
2026-04-18 22:10 4.98731 -53.10932 7533 ft 144 kts 100°
2026-04-18 22:11 4.98511 -53.09950 7532 ft 144 kts 101°
2026-04-18 22:11 4.98293 -53.08971 7533 ft 144 kts 100°
2026-04-18 22:11 4.98073 -53.07990 7532 ft 143 kts 100°
2026-04-18 22:11 4.97856 -53.07023 7533 ft 144 kts 100°
2026-04-18 22:12 4.97417 -53.05062 7532 ft 143 kts 101°
2026-04-18 22:12 4.97198 -53.04085 7533 ft 144 kts 101°
2026-04-18 22:12 4.96979 -53.03104 7534 ft 144 kts 101°
2026-04-18 22:13 4.96760 -53.02127 7533 ft 143 kts 101°
2026-04-18 22:13 4.96542 -53.01152 7531 ft 143 kts 101°
2026-04-18 22:13 4.96326 -53.00187 7533 ft 143 kts 101°
2026-04-18 22:13 4.96108 -52.99212 7533 ft 143 kts 100°
2026-04-18 22:14 4.95888 -52.98232 7534 ft 144 kts 101°
2026-04-18 22:14 4.95668 -52.97248 7535 ft 145 kts 100°
2026-04-18 22:14 4.95448 -52.96268 7537 ft 144 kts 100°
2026-04-18 22:14 4.95228 -52.95285 7537 ft 145 kts 100°
2026-04-18 22:15 4.95007 -52.94297 7537 ft 145 kts 100°
2026-04-18 22:15 4.94789 -52.93326 7538 ft 145 kts 100°
2026-04-18 22:15 4.94568 -52.92337 7534 ft 145 kts 100°
2026-04-18 22:15 4.94422 -52.91686 7534 ft 144 kts 100°
2026-04-18 22:16 4.94127 -52.90373 7537 ft 145 kts 99°
2026-04-18 22:16 4.93906 -52.89380 7536 ft 146 kts 100°
2026-04-18 22:16 4.93759 -52.88723 7536 ft 145 kts 100°
2026-04-18 22:16 4.93536 -52.87731 7537 ft 146 kts 100°
2026-04-18 22:17 4.93242 -52.86419 7539 ft 145 kts 100°
2026-04-18 22:17 4.93092 -52.85750 7534 ft 145 kts 100°
2026-04-18 22:17 4.92870 -52.84759 7534 ft 145 kts 100°
2026-04-18 22:17 4.92648 -52.83770 7534 ft 145 kts 101°
2026-04-18 22:18 4.92427 -52.82783 7533 ft 145 kts 100°
2026-04-18 22:18 4.92210 -52.81816 7534 ft 144 kts 101°
2026-04-18 22:18 4.91990 -52.80839 7530 ft 144 kts 100°
2026-04-18 22:18 4.91770 -52.79856 7510 ft 144 kts 101°
2026-04-18 22:19 4.91550 -52.78874 7504 ft 144 kts 101°
2026-04-18 22:19 4.91331 -52.77898 7507 ft 143 kts 100°
2026-04-18 22:19 4.91113 -52.76927 7509 ft 143 kts 100°
2026-04-18 22:19 4.90895 -52.75952 7509 ft 143 kts 101°
2026-04-18 22:20 4.90676 -52.74978 7506 ft 143 kts 100°
2026-04-18 22:20 4.90459 -52.74009 7508 ft 143 kts 100°
2026-04-18 22:20 4.90241 -52.73036 7496 ft 143 kts 100°
2026-04-18 22:20 4.90026 -52.72082 7500 ft 138 kts 100°
2026-04-18 22:21 4.89817 -52.71150 7513 ft 135 kts 100°
2026-04-18 22:21 4.89613 -52.70242 7556 ft 133 kts 100°
2026-04-18 22:21 4.89401 -52.69289 7341 ft 145 kts 100°
2026-04-18 22:21 4.89177 -52.68284 7103 ft 149 kts 99°
2026-04-18 22:22 4.88964 -52.67273 6974 ft 146 kts 98°
2026-04-18 22:22 4.88799 -52.66291 6768 ft 143 kts 95°
2026-04-18 22:22 4.88699 -52.65286 6424 ft 146 kts 91°
2026-04-18 22:22 4.88674 -52.64275 6155 ft 143 kts 87°
2026-04-18 22:23 4.88731 -52.63285 5878 ft 141 kts 81°
2026-04-18 22:23 4.88879 -52.62317 5569 ft 140 kts 80°
2026-04-18 22:23 4.88888 -52.61329 5228 ft 144 kts 94°
2026-04-18 22:23 4.88662 -52.60363 4999 ft 141 kts 106°
2026-04-18 22:24 4.88218 -52.59479 4715 ft 143 kts 117°
2026-04-18 22:24 4.87651 -52.58657 4460 ft 142 kts 122°
2026-04-18 22:24 4.87037 -52.57888 4213 ft 142 kts 125°
2026-04-18 22:24 4.86391 -52.57148 3904 ft 140 kts 128°
2026-04-18 22:25 4.85743 -52.56452 3558 ft 133 kts 127°
2026-04-18 22:25 4.85172 -52.55771 3451 ft 122 kts 122°
2026-04-18 22:25 4.84682 -52.55071 3257 ft 125 kts 115°
2026-04-18 22:25 4.84275 -52.54314 3126 ft 120 kts 108°
2026-04-18 22:26 4.83897 -52.53570 2977 ft 122 kts 114°
2026-04-18 22:26 4.83430 -52.52854 2797 ft 123 kts 118°
2026-04-18 22:26 4.82910 -52.52177 2677 ft 122 kts 123°
2026-04-18 22:26 4.82358 -52.51529 2504 ft 126 kts 123°
2026-04-18 22:27 4.81815 -52.50835 2386 ft 126 kts 122°
2026-04-18 22:27 4.81223 -52.50186 2313 ft 126 kts 126°
2026-04-18 22:27 4.80652 -52.49530 2276 ft 125 kts 122°
2026-04-18 22:27 4.80134 -52.48828 2232 ft 124 kts 118°
2026-04-18 22:28 4.79672 -52.48092 2125 ft 125 kts 115°
2026-04-18 22:28 4.79220 -52.47356 2039 ft 124 kts 115°
2026-04-18 22:28 4.78834 -52.46591 1927 ft 122 kts 105°
2026-04-18 22:28 4.78631 -52.45779 1782 ft 119 kts 95°
2026-04-18 22:29 4.78541 -52.44958 1626 ft 117 kts 86°
2026-04-18 22:29 4.78575 -52.44162 1480 ft 112 kts 82°
2026-04-18 22:29 4.78748 -52.43413 1276 ft 111 kts 72°
2026-04-18 22:29 4.78974 -52.42702 1072 ft 103 kts 68°
2026-04-18 22:30 4.79230 -52.42086 935 ft 91 kts 64°
2026-04-18 22:30 4.79492 -52.41532 910 ft 88 kts 63°
2026-04-18 22:30 4.79765 -52.40967 842 ft 91 kts 64°
2026-04-18 22:30 4.80016 -52.40361 729 ft 95 kts 64°
2026-04-18 22:31 4.80282 -52.39778 666 ft 90 kts 63°
2026-04-18 22:31 4.80547 -52.39230 543 ft 88 kts 58°
2026-04-18 22:31 4.80809 -52.38684 443 ft 82 kts 57°
2026-04-18 22:31 4.81043 -52.38186 322 ft 79 kts 62°
2026-04-18 22:32 4.81275 -52.37684 231 ft 78 kts 65°
2026-04-18 22:32 4.81504 -52.37196 113 ft 74 kts 59°
2026-04-18 22:32 4.81704 -52.36764 80 ft 60 kts 63°
2026-04-18 22:32 4.81849 -52.36448 82 ft 33 kts 66°
2026-04-18 22:33 4.81908 -52.36321 81 ft 17 kts 64°
2026-04-18 22:33 4.81955 -52.36228 80 ft 11 kts 41°
2026-04-18 22:33 4.82025 -52.36235 81 ft 11 kts 333°
2026-04-18 22:33 4.82092 -52.36265 80 ft 7 kts
2026-04-18 22:34 4.82124 -52.36240 81 ft 7 kts 57°
2026-04-18 22:34 4.82161 -52.36228 82 ft 7 kts 336°
2026-04-18 22:34 4.82205 -52.36227 81 ft 3 kts 85°
2026-04-18 22:34 4.82204 -52.36224 81 ft 0 kts 128°